Orbital Elements at Epoch 2459200.5 (2020-Dec-17.0) TDB
Reference: JPL 41 (heliocentric ecliptic J2000)
Element | Value | Uncertainty (1-sigma) | Units |
e | .3825842306841143 | 1.421e-07 | |
a | .7249587241003268 | 1.8871e-09 | au |
q | .4476009483626662 | 1.0363e-07 | au |
i | 8.133289362480525 | 2.4564e-05 | deg |
node | 109.4108374913818 | 0.00017896 | deg |
peri | 234.0446396306805 | 0.00017838 | deg |
M | 190.9569921930252 | 7.1549e-05 | deg |
tp | 2459306.367597711209 (2021-Apr-01.86759771) | 4.4586e-05 | TDB |
period | 225.4594003648734 0.62 | 8.8034e-07 2.41e-09 | d yr |
n | 1.596739809550598 | 6.2347e-09 | deg/d |
Q | 1.002316499837987 | 2.6091e-09 | au |
|
| | Orbit Determination Parameters
Additional Information
|